User: anonymous   Login
Location: Newark
(35.2161°N, 26.1013°E)
Time: 01:54:48
(UTC+00:00)
Language:

ITAMSAT 1 - Orbit

View from above orbital plane
View from above orbital plane
View from above satellite
View from above satellite

Ground track
Ground track

The orbit data is extracted from the following two-line orbital elements,

1 22826U 93061D   20021.20669377 -.00000003 +00000-0 +16680-4 0  9993
2 22826 098.9129 019.9225 0009979 078.4227 281.8074 14.30410746372857
Epoch (UTC): 21 January 2020 04:57:38
Eccentricity: 0.0009979
inclination: 98.9129°
perigee height: 783 km
apogee height: 797 km
right ascension of ascending node: 19.9225°
argument of perigee: 78.4227°
revolutions per day: 14.30410746
mean anomaly at epoch: 281.8074°
orbit number at epoch: 37285

The dashed part of the orbit path shows where the satellite is in the earth's shadow,  

DLR